RH
91 89 89 86 86 83 83 80 77 87 89 89 92 89 86 87 90 91 82 81 83 85 80 85 79 88 81 91 87 61 66 68 69 63 82 83 82 84 90 87 70 68 63 56 79 75 74
92 91 90 84 85 86 84 84 82 82 90 89 92 90 88 88 91 86 80 84 86 88 88 83 84 90 80 94 51 56 52 50 59 64 84 86 74 76 81 79 77 67 54 65 80 76 74
93 92 90 89 89 88 87 86 84 82 82 92 90 93 92 87 88 84 81 84 86 88 82 82 87 78 83 75 53 57 50 49 67 73 74 92 63 75 69 76 64 65 72 74 77 69 68
94 93 92 90 90 89 86 86 92 88 81 84 94 95 89 93 90 92 91 88 90 93 91 88 86 83 86 52 62 55 53 57 69 71 66 83 69 73 67 60 63 74 74 85 67 57 54
95 95 93 92 91 88 84 86 90 91 91 81 87 85 88 94 93 85 75 88 76 87 82 84 80 80 84 59 64 58 62 68 76 70 68 90 69 73 69 83 80 68 93 81 68 51 59
79 96 94 94 92 91 87 86 92 91 93 84 82 90 87 96 95 94 68 61 63 72 72 76 78 78 65 66 66 64 70 75 80 80 94 96 88 88 86 84 85 86 83 73 67 55 52
50 96 95 94 94 93 90 87 83 89 90 88 87 88 95 98 96 91 64 65 68 65 68 72 66 68 65 71 79 81 77 73 74 88 91 93 88 93 86 68 58 66 68 70 55 51 53
42 92 96 95 95 94 92 90 90 89 91 87 90 89 95 99 90 83 65 77 72 72 79 65 68 68 72 81 85 82 76 75 83 89 87 97 86 76 71 59 59 61 71 72 52 50 52
42 86 96 96 95 94 93 93 93 92 91 92 92 92 97 100 78 74 68 76 73 71 86 75 72 80 85 80 83 90 78 84 92 96 94 94 70 73 71 74 70 64 71 66 60 50 46
53 77 94 96 97 95 96 95 94 93 94 95 93 97 99 99 83 78 70 69 70 74 92 97 82 84 85 76 89 79 85 85 90 94 90 83 74 77 79 81 70 72 52 52 56 59 75
55 72 83 94 97 96 96 95 94 94 95 95 95 100 99 97 82 80 65 69 77 76 90 86 86 72 74 84 85 86 88 93 93 90 88 98 84 84 82 74 55 62 49 55 53 62 58
55 60 69 92 97 97 96 96 94 95 96 96 97 98 94 87 90 75 72 77 75 83 95 98 90 86 80 84 84 80 92 90 80 80 83 91 81 84 89 75 57 57 62 68 73 72 90
52 44 63 92 96 95 96 96 96 95 96 95 83 68 74 81 81 76 79 78 85 95 83 97 93 76 80 95 92 90 91 90 95 99 97 95 96 87 86 74 66 59 71 96 95 97 92
46 38 55 86 93 95 94 87 89 96 94 85 74 62 66 78 79 80 84 78 84 76 91 84 84 80 88 84 92 86 84 92 74 74 91 95 96 90 86 82 78 70 64 89 86 96 81
39 38 55 71 68 64 92 95 94 96 82 67 76 72 80 86 80 80 86 91 75 83 77 90 82 89 88 78 81 79 82 90 73 69 85 92 93 86 86 84 81 80 93 57 77 73 89
40 47 61 50 41 45 76 94 95 96 84 71 75 79 86 87 85 85 90 90 85 72 74 78 76 60 95 82 85 82 83 73 78 72 64 78 95 83 91 79 82 83 73 83 91 81 80
49 61 50 35 42 41 48 67 95 94 78 68 83 86 87 87 87 89 92 92 79 68 72 64 66 59 79 93 90 89 87 74 69 82 73 72 77 94 91 95 87 97 94 82 76 81 80
58 58 39 39 44 42 49 49 58 90 77 64 84 95 85 88 93 98 90 83 62 58 58 59 58 58 56 58 68 70 76 64 57 74 74 70 80 90 92 78 78 81 81 83 90 85 86
62 53 39 52 51 49 50 48 54 86 87 81 92 91 84 92 94 96 75 64 61 58 52 51 54 52 51 55 69 68 67 56 52 60 71 72 91 98 100 85 78 98 90 76 74 82 90
61 47 49 58 55 56 54 50 57 70 55 83 89 87 84 89 89 82 87 72 64 56 55 47 50 48 51 53 58 71 67 57 52 50 54 56 80 76 82 69 84 98 88 83 80 98 77
58 47 64 59 62 64 57 51 56 59 48 73 92 94 84 94 83 82 83 77 69 65 54 50 51 54 56 58 59 71 69 63 56 53 63 60 80 83 71 73 76 80 83 90 94 77 86
54 59 68 56 62 67 61 58 51 55 44 65 82 82 89 89 88 87 80 86 83 84 61 62 60 67 60 55 55 68 70 66 60 57 62 69 82 78 58 66 70 86 71 87 85 77 78
60 63 65 58 64 67 65 60 58 59 45 69 79 82 86 80 71 81 78 72 78 77 63 68 72 70 61 62 56 52 56 56 56 63 73 71 88 84 78 80 64 70 67 69 76 74 73
62 64 65 62 67 68 62 68 68 69 64 69 83 85 76 66 66 68 56 55 66 64 84 72 71 68 62 71 52 47 56 61 64 60 68 77 76 83 91 78 89 55 45 57 64 54 67
60 76 64 69 71 72 63 75 75 72 71 72 77 80 85 77 85 66 65 66 72 75 80 80 72 75 80 61 68 72 77 59 57 59 69 63 80 92 93 95 69 48 61 64 65 59 55
67 80 65 73 74 72 65 82 71 72 73 72 79 75 84 82 78 67 68 72 87 93 89 86 80 76 67 76 73 85 87 75 75 70 65 63 63 73 93 89 92 50 54 50 55 80 56
79 74 72 75 81 71 64 68 76 77 74 71 80 74 73 89 77 68 68 64 64 71 76 87 86 89 74 85 81 88 88 70 83 84 86 81 80 90 81 88 75 56 48 55 79 59 69
83 77 82 80 86 71 68 73 87 81 75 74 80 70 78 88 87 71 59 64 68 72 79 80 88 96 95 84 82 84 88 78 76 72 78 83 88 94 82 88 90 48 59 71 64 65 64
76 94 77 82 84 74 75 81 90 83 80 80 82 90 92 89 84 78 78 75 71 59 76 77 96 100 100 99 93 94 86 83 79 80 67 72 70 79 78 74 50 47 63 56 66 68 59
Wind_Speed
12 12 14 15 17 18 18 20 20 20 20 20 20 19 21 21 17 11 11 9 8 5 4 2 1 3 4 1 6 6 9 6 12 14 21 12 7 6 7 6 6 5 12 13 12 9 4
11 12 13 15 17 18 18 19 19 20 20 19 20 18 18 19 14 11 10 10 10 8 4 3 2 6 3 3 6 7 11 11 10 16 21 14 9 7 6 7 7 6 5 11 12 7 6
11 12 13 15 17 18 19 19 19 20 20 20 18 16 16 14 13 11 10 8 7 6 4 3 1 4 1 8 2 8 9 13 17 26 19 20 7 8 4 5 6 3 7 9 9 9 4
11 11 12 14 16 18 19 20 20 20 20 19 18 16 15 14 11 11 10 9 8 7 6 4 2 3 4 5 8 1 7 18 9 19 19 20 12 2 2 2 4 5 4 5 7 13 5
10 10 12 13 15 17 19 20 20 20 19 20 18 17 15 13 12 10 9 9 5 6 1 1 2 3 5 9 3 4 6 7 3 15 17 18 7 4 1 8 5 2 5 5 8 13 10
10 10 11 13 15 17 19 21 21 21 20 19 18 17 14 14 12 11 12 7 2 1 3 1 3 1 4 5 5 7 7 4 4 9 10 8 5 4 2 6 17 14 9 9 9 16 12
11 9 10 12 14 16 18 20 22 21 20 20 19 18 16 14 11 10 10 2 4 3 2 1 2 2 10 9 4 5 3 4 4 2 7 11 9 14 8 3 1 6 5 10 3 8 15
10 9 10 11 14 16 18 20 21 22 22 20 19 19 17 13 8 7 3 3 3 2 1 4 4 3 1 4 2 4 4 3 3 3 5 7 11 6 7 5 4 6 6 6 2 6 11
10 9 9 10 13 16 18 20 22 23 23 21 21 18 15 12 7 1 5 6 3 0 0 4 1 2 2 5 4 2 1 6 2 6 10 6 9 8 8 4 6 2 6 5 5 4 3
8 8 9 10 12 15 18 21 23 24 24 24 23 18 12 9 2 2 3 7 1 1 3 5 5 2 1 1 4 3 1 2 2 14 14 4 7 9 8 4 5 3 3 5 6 6 4
8 7 9 10 12 15 18 21 24 25 25 24 23 18 8 3 2 2 1 6 1 3 5 7 4 5 3 1 4 2 2 5 2 8 4 1 7 9 6 5 5 2 3 5 1 3 2
7 7 8 9 12 15 18 21 23 26 26 27 23 12 2 4 4 2 2 2 3 5 3 4 3 4 3 3 4 0 3 6 3 7 11 5 3 4 2 3 4 5 6 7 5 3 2
6 7 8 9 11 15 19 21 24 26 28 29 18 5 5 3 1 2 3 2 4 6 3 1 3 2 4 3 2 1 2 4 4 5 9 6 3 2 3 5 3 3 5 2 1 1 4
6 6 7 9 12 14 18 22 25 26 29 27 9 2 3 2 1 2 1 4 8 2 3 3 3 5 3 6 3 4 2 3 2 9 5 3 7 1 4 3 4 3 4 5 6 4 3
6 6 6 9 12 16 18 21 25 27 31 23 2 2 1 2 2 1 3 4 6 5 4 4 4 2 2 2 1 2 3 1 3 1 5 5 2 2 2 2 2 3 2 3 5 3 3
7 4 4 8 12 17 19 21 24 27 30 19 0 2 3 2 1 2 3 3 1 3 2 1 0 4 4 4 3 2 1 2 2 1 1 3 6 1 2 3 1 3 2 2 3 3 4
7 3 4 7 11 16 20 22 24 27 27 12 1 2 2 2 2 3 2 4 2 4 3 1 3 1 5 7 6 5 7 3 3 3 6 4 3 2 5 6 8 3 2 3 3 4 4
7 3 3 7 11 15 19 23 24 25 24 7 2 2 4 4 2 2 1 3 3 1 2 2 2 2 2 4 2 2 5 2 4 7 6 3 4 4 3 1 4 7 5 7 4 4 1
8 4 2 6 10 14 18 22 24 27 20 6 2 1 2 1 3 3 4 3 1 2 0 2 2 2 2 2 3 2 2 2 3 5 7 6 1 3 2 2 2 5 5 3 3 3 6
9 4 0 5 9 13 18 20 24 27 16 1 2 1 3 3 1 0 3 3 3 1 1 1 2 2 1 2 4 4 2 1 2 2 4 5 3 5 7 5 4 6 12 10 6 4 6
10 6 2 4 9 13 17 20 24 27 14 3 3 1 3 1 1 2 2 2 3 1 1 2 2 3 2 1 2 3 2 2 3 2 4 4 5 3 5 2 4 5 6 14 10 15 10
12 8 4 4 8 13 16 20 23 27 13 5 2 2 2 2 2 2 2 1 3 5 3 2 1 4 2 3 4 5 5 4 4 1 3 1 2 2 2 1 1 3 6 10 19 17 12
14 10 6 5 8 11 15 18 20 23 16 6 4 3 1 3 3 2 1 3 4 6 2 5 2 2 2 1 1 4 3 3 5 7 4 3 4 3 4 4 4 6 8 12 7 7 10
16 12 8 6 7 10 13 16 17 17 19 7 4 2 3 2 2 2 3 3 3 3 4 4 3 1 1 5 3 2 5 5 6 3 4 5 4 2 2 3 2 6 3 6 12 11 10
18 14 10 7 6 8 11 14 15 13 10 15 9 2 2 1 3 4 7 4 6 5 0 3 2 2 5 3 3 4 4 3 2 4 4 4 4 2 3 3 6 4 1 3 5 6 9
19 16 12 8 6 7 9 11 12 10 9 8 14 9 4 3 2 3 3 3 2 4 5 2 5 7 2 2 3 3 3 3 2 0 4 3 4 3 2 1 4 4 1 3 3 5 3
21 17 14 10 6 7 8 7 7 10 8 6 6 13 4 2 2 2 1 2 2 3 3 3 6 6 3 1 2 2 3 3 3 4 4 3 1 4 3 2 6 7 5 4 2 5 4
21 18 17 12 8 7 6 5 5 7 8 5 4 7 3 0 4 2 2 2 4 1 2 3 4 1 1 2 2 3 3 4 1 3 5 6 5 3 4 3 7 2 1 4 5 3 3
22 20 17 12 9 6 5 4 5 5 6 6 3 5 3 1 3 11 14 12 11 5 2 3 1 3 3 2 1 2 2 0 3 3 1 3 6 4 7 5 4 4 5 4 3 3 2
Wind_Direction
344 346 346 351 351 350 353 353 350 346 346 341 343 353 352 356 3 18 19 17 31 69 106 136 206 173 156 193 256 270 347 171 226 260 210 205 166 167 192 173 151 177 178 189 115 153 133
338 343 345 348 348 350 353 351 350 348 344 343 343 355 355 4 13 19 21 19 10 9 9 50 110 161 142 244 255 300 278 297 309 215 200 205 187 188 176 178 172 175 140 160 136 152 136
331 338 343 344 347 351 351 351 351 347 347 346 340 354 350 354 2 0 7 7 358 353 8 21 115 162 160 247 260 10 258 284 303 201 184 206 202 187 154 139 144 178 85 91 170 171 155
325 334 342 342 347 350 348 348 347 348 348 341 343 344 344 343 340 342 345 344 340 319 273 278 167 167 246 282 319 349 196 291 283 186 184 201 210 139 205 146 81 96 84 134 181 155 187
317 331 339 339 345 346 347 348 346 344 345 343 341 338 336 331 328 326 326 330 334 346 163 189 143 154 282 327 78 139 170 297 304 166 164 235 166 177 69 122 86 185 163 157 159 186 142
312 328 335 335 340 342 347 347 344 344 343 339 340 336 331 327 328 325 318 303 288 343 97 184 261 301 338 336 349 178 156 198 81 154 147 184 163 148 96 156 185 182 172 183 167 195 186
311 322 332 331 338 341 345 344 343 342 341 341 338 335 328 327 325 330 326 132 30 346 13 272 287 160 255 320 211 85 60 69 29 99 184 160 159 190 167 148 105 125 101 176 155 178 186
306 314 326 329 337 340 342 341 341 343 341 339 334 330 324 320 315 334 336 81 133 211 317 317 265 239 358 351 126 42 16 72 51 205 125 146 180 155 131 117 114 143 132 174 126 152 179
298 307 318 327 337 339 339 338 341 341 338 336 333 330 320 314 299 285 102 131 112 93 345 310 27 49 323 353 57 65 282 103 163 225 182 164 142 141 145 97 108 30 140 162 160 103 46
285 300 314 326 335 338 338 339 342 341 337 335 333 329 320 314 255 244 176 159 134 46 76 352 341 79 216 114 91 138 81 97 191 165 177 97 143 142 122 125 108 86 196 157 125 148 191
274 295 313 326 333 337 338 343 342 340 336 333 332 328 316 182 283 240 181 161 146 92 55 345 330 292 253 32 140 75 138 211 199 133 119 120 132 136 140 158 127 188 151 172 108 116 117
266 293 312 325 333 338 338 343 342 337 336 335 333 331 267 185 218 255 276 270 106 48 26 339 309 321 319 48 76 289 264 206 110 88 75 80 86 61 124 56 137 131 82 51 54 88 264
258 293 311 328 337 339 338 341 341 339 338 339 338 330 147 154 333 180 292 46 36 79 180 318 34 107 59 322 65 176 127 101 128 116 105 48 19 39 27 95 52 82 87 48 51 262 219
252 288 312 335 340 339 338 342 341 342 341 346 347 82 156 121 137 301 336 30 66 339 198 161 167 89 59 14 20 26 114 103 36 113 92 140 159 77 343 86 173 142 159 150 190 195 226
245 276 320 341 338 340 341 344 343 344 344 346 354 142 69 52 179 353 63 49 184 202 186 168 164 140 116 76 25 64 40 74 192 96 121 127 99 86 16 46 53 153 164 186 107 24 56
235 269 326 341 341 343 344 349 345 346 346 346 158 88 35 61 146 74 81 186 167 187 268 284 17 178 131 144 146 115 11 263 154 83 40 151 113 55 113 48 10 78 271 75 357 140 239
222 247 320 348 347 348 349 352 349 350 347 353 352 82 26 335 307 49 115 227 266 230 188 260 306 332 134 163 177 180 183 181 172 110 65 118 77 110 133 211 197 160 204 204 148 156 186
205 230 324 358 356 353 354 352 352 354 348 360 44 57 358 358 44 105 120 209 215 199 163 298 276 327 51 139 147 154 179 200 173 144 133 179 115 159 184 308 259 223 212 181 158 226 211
195 212 341 5 3 359 360 356 356 356 352 316 76 252 8 7 68 337 311 313 319 8 323 336 315 25 354 92 96 87 91 349 150 147 157 176 160 115 137 301 273 219 194 213 116 73 197
190 193 264 15 13 6 4 1 2 359 357 336 72 41 336 45 201 146 24 318 300 155 284 321 298 323 8 83 50 137 112 357 25 100 117 101 131 160 192 218 139 190 207 203 187 200 219
184 183 153 39 24 15 10 8 7 3 2 357 31 185 197 260 49 22 239 318 278 9 133 45 353 38 333 57 69 121 125 123 49 100 73 137 193 157 237 215 152 195 204 206 208 227 209
182 170 153 64 32 19 18 15 11 9 8 72 107 137 347 192 253 224 347 336 40 335 10 3 50 323 275 171 199 198 143 185 185 103 113 28 187 123 331 345 11 284 248 217 224 235 252
178 170 148 89 48 29 26 22 18 20 28 56 19 346 53 324 315 142 52 331 40 342 96 87 315 333 23 81 344 302 187 188 174 153 147 123 130 85 268 344 323 293 223 209 209 205 217
176 168 150 107 64 40 35 35 30 33 32 41 29 22 44 308 4 26 25 322 343 337 289 321 1 340 332 314 262 69 44 75 141 130 137 132 108 99 210 12 332 243 212 202 219 241 215
174 164 150 127 84 49 46 42 35 35 39 46 34 62 85 356 5 350 358 350 323 318 286 266 344 332 312 18 60 40 354 11 217 184 172 145 126 117 152 198 287 285 150 164 173 286 225
172 164 156 144 103 62 64 56 40 39 36 47 37 24 75 90 323 340 340 329 325 331 333 328 339 326 322 75 85 178 215 227 260 179 33 130 110 126 148 178 253 254 321 173 163 297 288
171 165 163 154 122 78 68 48 43 31 34 56 50 27 67 74 283 14 25 292 329 343 298 301 349 333 7 113 140 159 246 199 195 184 172 141 96 168 205 264 281 252 283 161 72 255 315
171 167 165 156 139 104 72 50 56 35 37 55 73 33 47 79 284 241 322 309 339 20 314 359 315 120 331 187 165 188 182 227 158 197 179 165 164 186 188 216 274 212 52 178 227 289 290
167 169 162 157 149 129 84 75 57 34 40 41 51 0 345 180 262 303 290 282 247 233 111 327 35 313 20 284 312 126 242 113 171 244 48 215 180 184 182 211 230 235 231 264 220 240 290